Ricardo Xhaka

Olheiro-Chefe - Grasshopper
3 Dez 2028
Domingo
Processo

Personalidade

Adaptabilidade (10) Ambição (5) Controvérsia (11) Lealdade (6) Pressão (6) Profissionalismo (6) Espírito Esportivo (20) Temperamento (4)

Perfil

Estilo de Treinamento Democrático
Licença Continental C
Determinação 9
Gestão de Pessoas 11
Motivação 9
Disciplina 6
Satisfação no Trabalho
100%
Fadiga
0%
Função Olheiro-Chefe
Salário 28.4K p/s
Contrato 14.03.2030

Desempenho

Comportamento Bom
Eficácia do Treinamento
45%
Desenvolvimento do Jogador
30%
Prevenção de Lesões
30%
Implementação Tática
45%

Eventos Recentes

Participou de uma reunião de recrutamento agora
Participou de uma reunião de recrutamento agora
Aniversário 7d atrás
Participou de uma reunião de recrutamento 7d atrás
Participou de uma reunião de recrutamento 7d atrás
Recomendou um alvo de transferência 7d atrás
Recomendou um alvo de transferência 7d atrás
Recomendou um alvo de transferência 14d atrás

Monitorando agora

158
Jogador Clube Status Habilidade Confiança Observado Última observação Último voto
Sergio Córdova Young Boys Perdido 112 / 127 72% 1 24.07.2028 -
Jake Evans Crewe Alexandra Ativo 109 / 117 40% 4 30.05.2028 -
Eli Junior Kroupi Bournemouth Ativo 140 / 150 40% 6 30.05.2028 -
Tyler Fletcher Rotherham United Ativo 108 / 127 40% 2 30.05.2028 -
Ryan McAidoo Oldham Athletic Ativo 118 / 119 40% 6 29.05.2028 -
Kerim Alajbegović Modena Ativo 139 / 145 40% 4 29.05.2028 -
André Miranda Porto Ativo 120 / 119 40% 2 28.05.2028 -
Gabe Forsyth Colchester United Ativo 116 / 117 40% 6 27.05.2028 -
Oskar Pietuszewski Estrela da Amadora Ativo 136 / 138 40% 4 27.05.2028 -
Rio Ngumoha Plymouth Argyle Ativo 142 / 152 40% 4 27.05.2028 -
Lennart Karl TSG Hoffenheim Ativo 139 / 140 40% 7 25.05.2028 -
Fletcher Boyd Accrington Stanley Ativo 99 / 106 40% 1 25.05.2028 -
Luca Williams-Barnett Walsall Ativo 123 / 124 40% 9 23.05.2028 -
Suleman Sani Werder Bremen Ativo 137 / 140 40% 4 21.05.2028 -
Honest Ahanor Atalanta Ativo 139 / 135 40% 4 21.05.2028 -
Ben Broggio Mansfield Town Ativo 107 / 108 40% 6 20.05.2028 -
Jorge Salinas Racing Santander Ativo 130 / 139 40% 4 19.05.2028 -
Amin Nabizada Exeter City Ativo 112 / 124 40% 6 19.05.2028 -
Gabriel Mec Feirense Ativo 131 / 131 40% 6 17.05.2028 -
Mustafa Hekimoğlu Antalyaspor Ativo 128 / 140 40% 3 16.05.2028 -
Ryan Kavuma-McQueen Accrington Stanley Ativo 123 / 135 40% 7 14.05.2028 -
Christos Mouzakitis Hull City Ativo 142 / 136 40% 3 13.05.2028 -
Shea Lacey Crystal Palace Ativo 136 / 142 40% 1 13.05.2028 -
Aarón Ochoa Málaga Ativo 117 / 120 40% 5 10.05.2028 -
Babis Kostoulas Oxford United Ativo 145 / 152 40% 6 10.05.2028 -
Leo Pecover Swindon Town Ativo 101 / 107 40% 2 10.05.2028 -
Josh Nichols Oldham Athletic Ativo 116 / 130 40% 5 05.05.2028 -
Omar Khedr Gillingham Ativo 115 / 113 40% 2 05.05.2028 -
Otto Stange Borussia Mönchengladbach Ativo 130 / 122 40% 3 04.05.2028 -
Oscar Schwartau Norwich City Ativo 129 / 132 40% 6 01.05.2028 -
Ibrahim Fullah Charlton Athletic Ativo 125 / 130 40% 6 01.05.2028 -
Ryunosuke Sato Eibar Ativo 130 / 139 40% 4 25.04.2028 -
Luca Meirelles Kudrivka Ativo 132 / 114 40% 1 23.04.2028 -
Rémi Himbert AC Ajaccio Ativo 118 / 126 40% 3 22.04.2028 -
Igor Tyjon Barrow AFC Ativo 113 / 116 40% 4 22.04.2028 -
Siyabonga Mabena Bidvest Wits Ativo 112 / 123 40% 2 18.04.2028 -
Trey Nyoni Rotherham United Ativo 136 / 143 40% 4 13.04.2028 -
Gorka Gorosabel Real Sociedad Ativo 117 / 129 40% 3 13.04.2028 -
Henrique Carmo Sochi Ativo 131 / 141 40% 1 10.04.2028 -
Eduardo Fernandes Benfica Ativo 122 / 128 40% 1 07.04.2028 -
Gomolemo Kekana Maritzburg United Ativo 112 / 117 40% 5 12.03.2028 -
Nana Nuhu WAFA Ativo 97 / 82 40% 1 04.03.2028 -
Matias Siltanen Malmo FF Ativo 126 / 113 40% 1 01.03.2028 -
Lander Astiazarán Real Sociedad Ativo 107 / 116 40% 2 28.02.2028 -
Ruben Ramos LA Galaxy Ativo 99 / 101 40% 1 28.02.2028 -
Esquerdinha Notts County Ativo 123 / 126 40% 1 17.02.2028 -
Lewis Orford Crewe Alexandra Ativo 114 / 113 40% 1 12.02.2028 -
Christ Wawa Gefle Ativo 93 / 125 40% 1 08.02.2028 -
Olivier Mambwa Young Boys Perdido 112 / 118 40% 1 24.01.2028 -
Juan Camilo Córdoba Deportivo Pereira Ativo 89 / 86 40% 1 05.01.2028 -
Josh Acheampong Everton Ativo 136 / 138 40% 1 05.01.2028 -
Mao Hosoya Santos Ativo 134 / 135 67% 1 01.01.2028 Aprovar
Daniel Idoko Ikorodu City Ativo 85 / 109 40% 1 31.12.2027 -
Zane Albarus Shrewsbury Town Ativo 104 / 101 40% 1 31.12.2027 -
Federico Matarán Giana Erminio Ativo 91 / 110 40% 2 28.06.2027 -
Sascha Britschgi AC Milan Ativo 116 / 128 40% 2 28.06.2027 -
Godwin Oham Warri Wolves Ativo 85 / 85 40% 1 28.06.2027 -
Tommaso Cecotti Carpi Ativo 95 / 91 40% 1 03.06.2027 -
Brooke Norton-Cuffy Hull City Ativo 131 / 129 40% 7 28.05.2027 -
Kristoffer Lund Birmingham Ativo 123 / 124 40% 1 28.05.2027 -
Romelle Donovan Brentford Ativo 123 / 132 40% 1 28.05.2027 -
Riley Owen Stevenage Ativo 99 / 117 40% 1 27.05.2027 -
Toby Collyer West Bromwich Albion Ativo 129 / 137 40% 6 25.05.2027 -
Milan van Ewijk Coventry City Ativo 134 / 131 40% 5 23.05.2027 -
Calum Agius Crewe Alexandra Ativo 91 / 96 40% 2 23.05.2027 -
Lewis Bate Stockport County Ativo 124 / 112 40% 1 23.05.2027 -
Ethan Pye Stockport County Ativo 113 / 127 40% 4 21.05.2027 -
Jack Currie Oxford United Ativo 122 / 126 40% 3 21.05.2027 -
Leo Castledine Middlesbrough Ativo 128 / 134 40% 3 21.05.2027 -
Sanel Šaljić Austria Wien Ativo 114 / 127 40% 1 21.05.2027 -
Florentino Luís Ipswich Town Ativo 146 / 149 40% 7 19.05.2027 Observar
Joel Bagan Cardiff City Ativo 110 / 112 40% 9 19.05.2027 -
Max Bird Birmingham Ativo 138 / 139 40% 5 19.05.2027 -
Welington Southampton Ativo 131 / 136 40% 2 18.05.2027 -
Alfie Gilchrist West Bromwich Albion Ativo 123 / 131 40% 1 18.05.2027 -
Shea Charles Southampton Ativo 130 / 137 40% 4 15.05.2027 -
Bosun Lawal Stoke City Ativo 131 / 137 40% 6 15.05.2027 -
Dennis Cirkin Queens Park Rangers Ativo 135 / 136 40% 4 13.05.2027 -
Samuele di Benedetto Twente Ativo 119 / 127 40% 3 13.05.2027 -
Víctor Guzmán Sporting CP Ativo 94 / 102 40% 2 13.05.2027 -
Gabriele Bertolini Vicenza Ativo 102 / 109 40% 3 12.05.2027 -
Asanele Bonani Chippa United Ativo 98 / 91 40% 1 12.05.2027 -
Lucas Ferreira Shakhtar Ativo 130 / 122 40% 1 12.05.2027 -
Lewis Ferguson Bologna Ativo 148 / 139 40% 4 10.05.2027 -
Darlin Yongwa Norwich City Ativo 126 / 116 40% 4 09.05.2027 -
Jonathan Varane Queens Park Rangers Ativo 121 / 132 40% 2 09.05.2027 -
Max Johnston Derby County Ativo 130 / 120 40% 4 09.05.2027 -
Luke McNally Bristol City Ativo 133 / 132 40% 8 06.05.2027 -
Lee Buchanan Sheffield Wednesday Ativo 118 / 120 40% 2 06.05.2027 -
Pelle Mattsson Norwich City Ativo 124 / 135 40% 2 06.05.2027 -
Jacob Greaves Ipswich Town Ativo 142 / 128 40% 2 05.05.2027 -
Harry Clarke Preston Ativo 130 / 136 40% 5 04.05.2027 -
Ryan Oné Sheffield United Ativo 115 / 126 40% 1 04.05.2027 -
Terry Devlin Portsmouth Ativo 121 / 114 40% 1 01.05.2027 -
Alexander Prass TSG Hoffenheim Ativo 137 / 132 40% 5 30.04.2027 -
Zakaria El Ouahdi Hamburger SV Ativo 130 / 137 40% 4 30.04.2027 -
Aidan Morris Middlesbrough Ativo 126 / 120 40% 5 29.04.2027 -
Jacques Ekomié Wrexham Ativo 133 / 141 40% 5 26.04.2027 -
Derry Murkin Derby County Ativo 134 / 118 40% 2 26.04.2027 -
Bence Dárdai VfL Wolfsburg Ativo 137 / 124 40% 1 26.04.2027 -
Oliver Skipp Leicester City Ativo 126 / 125 40% 3 22.04.2027 -
Max Rosenfelder SC Freiburg Ativo 130 / 142 40% 2 14.04.2027 -
Harrison Burrows Sheffield United Ativo 120 / 132 40% 1 11.04.2027 -
Habib Diarra Sunderland Ativo 141 / 136 40% 2 05.04.2027 -
Alfie Doughty Millwall Ativo 125 / 121 40% 2 03.04.2027 -
Tariq Lamptey Queens Park Rangers Ativo 137 / 132 40% 1 02.04.2027 -
Max Arfsten Middlesbrough Ativo 122 / 136 40% 1 30.03.2027 -
Enrico Delprato Parma Ativo 144 / 135 40% 2 22.03.2027 -
Japhet Tanganga Sheffield United Ativo 137 / 141 40% 1 22.03.2027 -
Adis Jašić Zamalek Ativo 124 / 113 40% 1 16.03.2027 -
Brian De Keersmaecker Oxford United Ativo 118 / 113 40% 1 16.03.2027 -
Johnly Yfeko Exeter City Ativo 105 / 112 40% 1 12.03.2027 -
Alessandro Buongiorno Cagliari Ativo 149 / 154 40% 1 06.03.2027 -
Samuel Edozie Southampton Ativo 131 / 133 40% 1 05.03.2027 -
Marcelo Allende Mamelodi Sundowns Ativo 124 / 129 40% 2 04.03.2027 -
Juan Bezerra Zamalek Ativo 123 / 128 40% 1 03.03.2027 -
Oswin Appollis Orlando Pirates Ativo 135 / 123 40% 1 03.03.2027 -
Isaiah Jones Luton Town Ativo 128 / 122 40% 3 02.03.2027 -
Ilyas Ansah Hull City Ativo 137 / 143 40% 1 02.03.2027 -
Bazoumana Touré Newcastle United Ativo 140 / 138 40% 1 02.03.2027 -
Peter Federico Gornik Zabrze Ativo 134 / 133 40% 2 28.02.2027 -
Scott Twine Bristol City Ativo 116 / 129 40% 1 28.02.2027 -
Jason Knight Bristol City Ativo 134 / 122 40% 1 26.02.2027 -
Jack Rudoni Coventry City Ativo 131 / 142 40% 2 25.02.2027 -
Cian Ashford Cardiff City Ativo 123 / 113 40% 2 25.02.2027 -
Mohamed-Ali Cho Hull City Ativo 134 / 127 40% 2 20.02.2027 -
Nathan Moriah-Welsh Mansfield Town Ativo 106 / 111 40% 1 20.02.2027 -
Derensili Sanches Fernandes Huddersfield Town Ativo 118 / 124 40% 1 14.02.2027 -
Nicolas Madsen Queens Park Rangers Ativo 129 / 127 40% 1 14.02.2027 -
Armstrong Oko-Flex Levski Ativo 119 / 110 40% 1 12.02.2027 -
Jack Diamond Stockport County Ativo 120 / 127 40% 1 12.02.2027 -
Raoul Bellanova Atalanta Ativo 144 / 148 40% 1 08.02.2027 -
Matt O'Riley Brighton Ativo 142 / 142 40% 1 08.02.2027 -
Finn Azaz Southampton Ativo 138 / 119 40% 2 06.02.2027 -
Serge-Philippe Raux-Yao Rapid Wien Ativo 123 / 117 40% 3 04.02.2027 -
Petter Nosa Dahl Rapid Wien Ativo 120 / 118 40% 1 12.01.2027 -
Peter Shalulile Mamelodi Sundowns Ativo 134 / 115 40% 1 12.01.2027 -
Sampson Dweh Mallorca Ativo 133 / 134 66% 1 01.01.2027 Aprovar
Lee Tae-Suk Austria Wien Ativo 126 / 130 40% 3 11.12.2026 -
Abubakr Barry Red Bull Salzburg Ativo 124 / 126 40% 5 10.12.2026 -
Lebogang Manyama SuperSport United Ativo 110 / 110 40% 1 10.12.2026 -
Cheick Mamadou Diabaté Wolfsberger AC Ativo 123 / 131 40% 1 21.11.2026 -
Metinho Basel Ativo 125 / 140 40% 1 20.11.2026 Mais informações
Dara O'Shea Ipswich Town Ativo 132 / 128 40% 1 20.11.2026 -
Armin Gigović Young Boys Ativo 129 / 123 40% 1 19.11.2026 -
Boris Matić Red Bull Salzburg Ativo 122 / 114 40% 2 08.11.2026 -
Mattia Zanotti Young Boys Ativo 125 / 138 40% 1 08.11.2026 -
Paul Koller Sturm Graz Ativo 110 / 112 40% 2 07.11.2026 -
Carlo Boukhalfa St. Gallen Ativo 116 / 114 40% 1 07.11.2026 -
Fabian Wohlmuth Wolfsberger AC Ativo 108 / 112 40% 1 05.11.2026 -
Tom Gaal St. Gallen Ativo 117 / 122 40% 1 04.11.2026 -
Isaac Schmidt Young Boys Ativo 119 / 127 40% 1 04.11.2026 -
Jordy Makengo SC Freiburg Ativo 129 / 138 40% 1 02.11.2026 -
Bendegúz Bolla Rapid Wien Ativo 131 / 128 40% 1 05.10.2026 -
Benjamin Böckle Altach Ativo 109 / 118 40% 1 05.10.2026 -
Youssoufa Moukoko FC Copenhagen Ativo 136 / 131 40% 1 31.08.2026 -
Ryan Gauld Vancouver Whitecaps Ativo 127 / 118 40% 1 26.08.2026 -
Julian Niehues Heidenheim Ativo 115 / 118 40% 1 01.08.2026 -